Location: Jackson Park
(37.2862°N, 79.9123°W)
Time: 13:51:19
(UTC+00:00)

Vanguard 3 - Pass Details

Date: 12 May 2026
Orbit: 507 x 3204 km, 33.3° (Epoch: 6 June)

Event Time Altitude Azimuth Distance (km) Brightness Sun altitude
Rises 16:07:48 0° 190° (S) 6,132 11.8 65.8°
Reaches altitude 10° 16:13:06 10° 176° (S) 5,503 11.8 66.5°
Maximum altitude 16:24:52 22° 134° (SE) 5,052 11.9 67.9°
Drops below altitude 10° 16:37:36 10° 92° (E) 6,076 11.9 69.2°
Sets 16:43:46 0° 80° (E) 6,926 12.0 69.7°
